Regional Weather Roundup
Issued by NWS Upton, NY

Current Version | Previous Version | Graphics & Text | Print | Product List | Glossary Off
Versions: 1 2 3 4 5 6 7 8 9 10 11 12 13 14 15 16 17 18 19 20 21 22 23 24 25 26 27 28 29 30 31 32 33 34 35 36 37 38 39 40 41 42 43 44 45 46 47 48 49 50
000 ASUS41 KOKX 240408 RWROKX REGIONAL WEATHER ROUNDUP NATIONAL WEATHER SERVICE NEW YORK NY 1100 PM EST MON JAN 23 2017 NOTE: "FAIR" INDICATES FEW OR NO CLOUDS BELOW 12,000 FEET WITH NO SIGNIFICANT WEATHER AND/OR OBSTRUCTIONS TO VISIBILITY. NYZ071-072-176-178-NJZ106-104-240500- NEW YORK CITY METRO AREA CITY SKY/WX TMP DP RH WIND PRES REMARKS Central Park RAIN 36 35 96 NE12G30 29.52F FOG WCI 28 Wall St Helipt RAIN 39 36 89 NE23G35 29.49F FOG WCI 28 LaGuardia APRT RAIN 39 35 86 NE31G38 29.51F FOG WCI 27 Kennedy INTL RAIN 38 35 89 NE28G38 29.49F FOG WCI 26 Breezy Point N/A 36 N/A N/A NE20G32 N/A WCI 25 Newark/Liberty RAIN 38 35 89 NE21G30 29.52F FOG WCI 28 Teterboro RAIN 38 35 89 N13G20 29.52F FOG WCI 30 $$ NYZ177-179-078>081-240500- LONG ISLAND NEW YORK CITY SKY/WX TMP DP RH WIND PRES REMARKS Jones Beach N/A 37 N/A N/A NE35G43 N/A WCI 24 Matinecock PT NOT AVBL Farmingdale RAIN 38 35 89 NE23G41 29.47F WCI 27 MacArthur/ISP RAIN 38 37 97 NE30G43 29.48F FOG WCI 26 Shirley RAIN 38 38 100 NE9G26 29.51F FOG WCI 31 Westhampton RAIN 39 36 89 NE24G40 29.51F FOG WCI 28 Southampton NOT AVBL Bridgehampton NOT AVBL East Hampton LGT RAIN 38 37 93 NE20G41 29.53F WCI 28 Montauk N/A 40 39 97 NE21G38 29.56F WCI 30 $$ NYZ052-065-067-240500- HUDSON VALLEY CITY SKY/WX TMP DP RH WIND PRES REMARKS White Plains LGT RAIN 37 32 82 NE21G32 29.51F WCI 26 Newburgh LGTSLEET 34 32 93 NE17G25 29.61F WCI 23 Montgomery FRZ RAIN 34 31 88 NE18G30 29.59F FOG WCI 23 Poughkeepsie RAIN 33 31 92 N15 29.63F FOG WCI 23 Albany CLOUDY 32 27 81 N13 29.79F WCI 22 $$ NJZ001-105-106-008-010-013-015-019>022-104-240500- NEW JERSEY CITY SKY/WX TMP DP RH WIND PRES REMARKS Newark/Liberty RAIN 38 35 89 NE21G30 29.52F FOG WCI 28 Teterboro RAIN 38 35 89 N13G20 29.52F FOG WCI 30 Caldwell RAIN 36 33 89 NE14G25 29.54F FOG WCI 27 Somerville RAIN 37 33 85 N10G20 29.50F FOG WCI 30 Linden LGT RAIN 37 35 92 NE21G29 29.50F WCI 27 Sussex RAIN 33 31 92 NE22G31 29.55F FOG WCI 21 Andover N/A 33 31 92 NE12G20 29.53F WCI 24 Trenton RAIN 37 35 92 NE18G32 29.45F WCI 27 Millville CLOUDY 41 38 89 NE20G30 29.35R Atlantic City LGT RAIN 40 37 89 NE31G51 29.28F WCI 28 Wrightstown NOT AVBL Toms River LGT RAIN 38 36 92 NE23G35 29.43F WCI 27 Belmar RAIN 37 36 96 NE20G25 29.45F WCI 27 $$ PAZ047>061-062-071-240500- EASTERN PENNSYLVANIA CITY SKY/WX TMP DP RH WIND PRES REMARKS Philadelphia LGT RAIN 38 34 85 NE29G44 29.40F WCI 26 Allentown LGT RAIN 37 32 82 NE16G26 29.51F WCI 28 Scranton MIX PCPN 35 33 92 NE9 29.55F WCI 28 $$ CTZ002-004>006-009-010-012-RIZ004-006-007-MAZ004-011-015-240500- SOUTHERN NEW ENGLAND IN CT CITY SKY/WX TMP DP RH WIND PRES REMARKS Bradley INTL SLEET 34 30 85 N23G29 29.70F FOG WCI 22 Hartford RAIN 34 32 92 N12 29.68F FOG WCI 25 Danbury RAIN 34 30 85 NE15G29 29.59F FOG WCI 24 Wtrbury/Oxford CLOUDY 34 28 80 NE23G39 29.56F WCI 22 Bridgeport LGT RAIN 38 33 82 NE28G36 29.56F WCI 26 Meriden LGT RAIN 35 31 85 NE9G22 29.63F WCI 28 New Haven LGT RAIN 37 34 89 NE22G30 29.56F WCI 26 Chester RAIN 37 34 87 NE15G28 29.58F WCI 28 Groton RAIN 39 38 96 NE29G37 29.57F FOG WCI 27 Wilimantic RAIN 37 34 89 NE22G31 29.66F FOG WCI 26 IN RI CITY SKY/WX TMP DP RH WIND PRES REMARKS Providence RAIN 39 36 89 NE22G35 29.70F FOG WCI 29 Block Island NOT AVBL Westerly RAIN 40 35 83 NE17G35 29.60F WCI 31 IN MA CITY SKY/WX TMP DP RH WIND PRES REMARKS Boston RAIN 36 35 96 NE29G38 29.80F FOG WCI 23 Worcester LGT SNOW 31 29 92 NE21G31 29.72F FOG WCI 18 Westfield RAIN 32 32 100 N17G24 29.73F WCI 21 Provincetown LGT RAIN 40 38 93 NE33G43 29.73F FOG WCI 28 Nantucket LGT RAIN 44 41 89 E31G43 29.56F FOG $$ ANZ330-335-338-340-345-350-353-355-240500- COASTAL MARINE OBSERVATIONS STATION/POSITION TIME SKY/WX TEMP WIND PRES VSBY WAVE AIR SEA DIR/SP/G HT/PER (UTC) (F) (DEG/KT/KT) (MB) (MI) (FT/S) NY HARB ENTRANCE 0250 40 43 40/ 29/ 37 997.6 15/11 20 S FIRE ISLAND 0350 43 45 50/ 37/ 51 993.7 18/ 9 GREAT SOUTH BAY NOT AVBL 23 SSW MONTAUK P 0250 43 45 50/ 35/ 41 999.2 16/10 15 E BARNEGAT LI 0330 46 N/A 19/11 HUDSON CANYON 0250 53 51 990.8 23/12 KINGS POINT NOT AVBL EXECUTION ROCKS 0345 38 50/ 25/ 39 N/A CENTRAL LI SOUND 0315 39 50/ 25/ 31 N/A 4/ 4 EASTERN LI SOUND NOT AVBL ROBBINS REEF 0348 38 40/ 28/ 42 998.7 $$ >>>>>>>>>>>>>>>>>>>>>>>>>>>> KEY <<<<<<<<<<<<<<<<<<<<<<<<<<< > < > SKY/WX - Sky Condition/Present Weather < > TMP - Temperature in Fahrenheit < > DP - Dew Point in Fahrenheit < > RH - Relative Humidity in Percent < > WIND - Direction (from) and Speed in MPH < > PRES - Mean Sea Level Pressure (inches of Hg) < > WCI - Wind Chill Index < > VSB - VISIBILITY IN MILES < > HX - HEAT INDEX < > TC - TEMPERATURE IN CELSIUS < > VRB - VARIABLE WIND DIRECTION < > < >>>>>>>>>>>>>>>>>>>>>>>>>>>> KEY <<<<<<<<<<<<<<<<<<<<<<<<<<<

USA.gov is the U.S. government's official web portal to all federal, state and local government web resources and services.